Location: Unspecified
(54.1780°N, 0.0000°E)
Time: 04:39:05
(UTC+00:00)

Transit 2A - Pass Details

Date: 20 June 2019
Orbit: 594 x 964 km, 66.7° (Epoch: 20 July)

Event Time Altitude Azimuth Distance (km) Brightness Sun altitude
Rises 03:17:30 0° 256° (WSW) 3,649 9.0 -1.7°
Reaches altitude 10° 03:20:18 10° 265° (W) 2,698 8.4 -1.4°
Maximum altitude 03:26:10 38° 332° (NNW) 1,412 7.6 -0.8°
Drops below altitude 10° 03:31:46 10° 39° (NE) 2,575 10.9 -0.2°
Sets 03:34:24 0° 48° (NE) 3,465 15.0 0.1°
